Flag for Germany Weather past 2 weeks in Lippstadt, North Rhine-Westphalia, Germany

Now
50 °F

Passing clouds.


Feels Like: 48 °F
Forecast: 43 / 62 °F
Wind: 6 mph from West

Location: Paderborn / Lippstadt

Current Time: Sep 23, 2014 at 12:30:12 AM

Latest Report: Sep 22, 2014 at 11:50 PM


Visibility: N/A

Pressure: 30.15 "Hg

Humidity: 76%

Dew point: 43 °F

Location of LippstadtLocation

Historic Weather in Lippstadt — Graph

°F

Lippstadt temperature yesterday

Maximum temperature yesterday: 55 °F (at 4:20 PM)
Minimum temperature yesterday: 45 °F (at 12:50 PM)
Average temperature yesterday: 51 °F

Past Weeks' High & Low Weather Summary

 TemperatureHumidityPressure
High73 °F (Sep 17, 4:20 PM)100% (Sep 7, 11:50 PM)30.24 "Hg (Sep 7, 11:50 PM)
Low45 °F (Sep 12, 3:50 AM)50% (Sep 17, 4:20 PM)29.86 "Hg (Sep 19, 4:50 AM)
Average59 °F86%30.04 "Hg
* Reported Sep 7 11:50 PM — Sep 22 11:20 PM, Lippstadt, Weather by CustomWeather, © 2014

Note: Actual official high and low records may vary slightly from our data, if they occured in-between our weather recording intervals... More about our weather records

Advertising

Lippstadt weather history for previous 24 hours

 ConditionsComfort  
Time TempWeatherWind HumidityBarometerVisibility
11:20 PM
Sep 22
50 °FPassing clouds.7 mph76%30.12 "HgN/A
10:50 PM50 °FPassing clouds.7 mph76%30.12 "HgN/A
10:20 PM50 °FPassing clouds.6 mph76%30.12 "HgN/A
9:50 PM52 °FPassing clouds.7 mph67%30.12 "HgN/A
9:20 PM50 °FPassing clouds.7 mph71%30.12 "HgN/A
8:50 PM50 °FPassing clouds.6 mph76%30.12 "HgN/A
8:20 PM50 °FPassing clouds.7 mph76%30.09 "HgN/A
7:50 PM52 °FPassing clouds.7 mph77%30.09 "HgN/A
7:20 PM52 °FSunny.7 mph82%30.09 "Hg10 mi
6:50 PM52 °FPassing clouds.7 mph77%30.07 "HgN/A
6:20 PM52 °FScattered clouds.8 mph77%30.07 "HgN/A
5:50 PM54 °FScattered clouds.9 mph67%30.07 "HgN/A
5:20 PM54 °FScattered clouds.9 mph67%30.07 "HgN/A
4:50 PM54 °FScattered clouds.8 mph67%30.07 "HgN/A
4:20 PM55 °FScattered clouds.9 mph67%30.07 "HgN/A
3:50 PM54 °FScattered clouds.9 mph72%30.04 "HgN/A
3:20 PM52 °FPassing clouds.8 mph82%30.04 "HgN/A
2:50 PM50 °FScattered clouds.10 mph82%30.04 "HgN/A
2:20 PM50 °FScattered clouds.9 mph82%30.04 "HgN/A
1:50 PM48 °FPassing clouds.6 mph94%30.04 "HgN/A
1:20 PM46 °FPassing clouds.10 mph93%30.04 "HgN/A
12:50 PM45 °FScattered clouds.7 mph100%30.04 "HgN/A
12:20 PM52 °FThunderstorms. Partly sunny.15 mph82%30.01 "Hg4 mi
11:50 AM54 °FScattered showers. Scattered clouds.13 mph82%30.01 "Hg5 mi
11:20 AM52 °FSprinkles. Broken clouds.13 mph88%30.01 "Hg5 mi
10:50 AM52 °FSprinkles. Broken clouds.13 mph82%30.01 "Hg5 mi
10:20 AM52 °FScattered clouds.14 mph82%30.01 "Hg5 mi
9:50 AM52 °FScattered clouds.13 mph88%30.01 "Hg5 mi
9:20 AM52 °FScattered clouds.12 mph88%30.01 "Hg6 mi
8:50 AM50 °FBroken clouds.12 mph94%30.04 "Hg6 mi
8:20 AM50 °FBroken clouds.9 mph94%30.04 "Hg5 mi
7:50 AM50 °FPassing clouds.9 mph100%30.04 "Hg4 mi
7:20 AM50 °FSprinkles. Partly cloudy.9 mph100%30.04 "Hg3 mi
6:50 AM50 °FSprinkles. Partly cloudy.9 mph94%30.04 "Hg4 mi
6:20 AM50 °FLight rain. Partly cloudy.8 mph94%30.04 "Hg4 mi
5:50 AM50 °FLight rain. Partly cloudy.8 mph94%30.04 "Hg4 mi
5:20 AM50 °FLight rain. Partly cloudy.9 mph100%30.04 "Hg6 mi
4:50 AM50 °FPassing clouds.10 mph100%30.04 "HgN/A
4:20 AM50 °FPassing clouds.9 mph100%30.04 "HgN/A
Weather by CustomWeather, © 2014

See weather overviewHow to use our weather pages